owner,sensor,date,latitude,longitude,vertical_datum,sea_water_temperature,qcFlag 
SCCF RECON,ioos:station:SCCF:56:1,2019-08-01T04:00:00Z,26.4645,-82.1044,1.64,29.6,11111222 
SCCF RECON,ioos:station:SCCF:56:1,2019-08-01T05:00:00Z,26.4645,-82.1044,1.64,29.75,11111222 
SCCF RECON,ioos:station:SCCF:56:1,2019-08-01T06:00:00Z,26.4645,-82.1044,1.64,29.36,11111222 
SCCF RECON,ioos:station:SCCF:56:1,2019-08-01T07:00:00Z,26.4645,-82.1044,1.64,29.51,11111222 
SCCF RECON,ioos:station:SCCF:56:1,2019-08-01T08:00:00Z,26.4645,-82.1044,1.64,29.89,11111222 
SCCF RECON,ioos:station:SCCF:56:1,2019-08-01T09:00:00Z,26.4645,-82.1044,1.64,29.95,11111222 
SCCF RECON,ioos:station:SCCF:56:1,2019-08-01T10:00:00Z,26.4645,-82.1044,1.64,29.59,11111222 
SCCF RECON,ioos:station:SCCF:56:1,2019-08-01T11:00:00Z,26.4645,-82.1044,1.64,29.26,11111222 
SCCF RECON,ioos:station:SCCF:56:1,2019-08-01T12:00:00Z,26.4645,-82.1044,1.64,29.05,11111222 
SCCF RECON,ioos:station:SCCF:56:1,2019-08-01T13:00:00Z,26.4645,-82.1044,1.64,29.11,11111222 
SCCF RECON,ioos:station:SCCF:56:1,2019-08-01T14:00:00Z,26.4645,-82.1044,1.64,29.5,11111222 
SCCF RECON,ioos:station:SCCF:56:1,2019-08-01T15:00:00Z,26.4645,-82.1044,1.64,30.05,11111222 
SCCF RECON,ioos:station:SCCF:56:1,2019-08-01T16:00:00Z,26.4645,-82.1044,1.64,30.39,11111222 
SCCF RECON,ioos:station:SCCF:56:1,2019-08-01T17:00:00Z,26.4645,-82.1044,1.64,30.6,11111222 
SCCF RECON,ioos:station:SCCF:56:1,2019-08-01T18:00:00Z,26.4645,-82.1044,1.64,30.84,11111222 
SCCF RECON,ioos:station:SCCF:56:1,2019-08-01T19:00:00Z,26.4645,-82.1044,1.64,30.43,11111222 
SCCF RECON,ioos:station:SCCF:56:1,2019-08-01T20:00:00Z,26.4645,-82.1044,1.64,30.67,11111222 
SCCF RECON,ioos:station:SCCF:56:1,2019-08-01T21:00:00Z,26.4645,-82.1044,1.64,30.42,11111222 
SCCF RECON,ioos:station:SCCF:56:1,2019-08-01T22:00:00Z,26.4645,-82.1044,1.64,30.17,11111222 
SCCF RECON,ioos:station:SCCF:56:1,2019-08-01T23:00:00Z,26.4645,-82.1044,1.64,30.13,11111222 
SCCF RECON,ioos:station:SCCF:56:1,2019-08-02T04:00:00Z,26.4645,-82.1044,1.64,28.68,11111222 
SCCF RECON,ioos:station:SCCF:56:1,2019-08-02T05:00:00Z,26.4645,-82.1044,1.64,28.62,11111222 
SCCF RECON,ioos:station:SCCF:56:1,2019-08-02T06:00:00Z,26.4645,-82.1044,1.64,28.74,11111222 
SCCF RECON,ioos:station:SCCF:56:1,2019-08-02T07:00:00Z,26.4645,-82.1044,1.64,29.12,11111222 
SCCF RECON,ioos:station:SCCF:56:1,2019-08-02T08:00:00Z,26.4645,-82.1044,1.64,29.29,11111222 
SCCF RECON,ioos:station:SCCF:56:1,2019-08-02T09:00:00Z,26.4645,-82.1044,1.64,29.22,11111222 
SCCF RECON,ioos:station:SCCF:56:1,2019-08-02T10:00:00Z,26.4645,-82.1044,1.64,28.91,11111222 
SCCF RECON,ioos:station:SCCF:56:1,2019-08-02T11:00:00Z,26.4645,-82.1044,1.64,28.69,11111222 
SCCF RECON,ioos:station:SCCF:56:1,2019-08-02T12:00:00Z,26.4645,-82.1044,1.64,28.55,11111222 
SCCF RECON,ioos:station:SCCF:56:1,2019-08-02T13:00:00Z,26.4645,-82.1044,1.64,28.55,11111222 
SCCF RECON,ioos:station:SCCF:56:1,2019-08-02T14:00:00Z,26.4645,-82.1044,1.64,28.94,11111222 
SCCF RECON,ioos:station:SCCF:56:1,2019-08-02T15:00:00Z,26.4645,-82.1044,1.64,29.21,11111222 
SCCF RECON,ioos:station:SCCF:56:1,2019-08-02T16:00:00Z,26.4645,-82.1044,1.64,29.3,11111222 
SCCF RECON,ioos:station:SCCF:56:1,2019-08-02T17:00:00Z,26.4645,-82.1044,1.64,29.35,11111222 
SCCF RECON,ioos:station:SCCF:56:1,2019-08-02T18:00:00Z,26.4645,-82.1044,1.64,29.32,11111222 
SCCF RECON,ioos:station:SCCF:56:1,2019-08-02T19:00:00Z,26.4645,-82.1044,1.64,29.31,11111222 
SCCF RECON,ioos:station:SCCF:56:1,2019-08-02T20:00:00Z,26.4645,-82.1044,1.64,29.26,11111222 
SCCF RECON,ioos:station:SCCF:56:1,2019-08-02T21:00:00Z,26.4645,-82.1044,1.64,29.03,11111222 
SCCF RECON,ioos:station:SCCF:56:1,2019-08-02T22:00:00Z,26.4645,-82.1044,1.64,28.9,11111222 
SCCF RECON,ioos:station:SCCF:56:1,2019-08-02T23:00:00Z,26.4645,-82.1044,1.64,28.76,11111222 
SCCF RECON,ioos:station:SCCF:56:1,2019-08-03T04:00:00Z,26.4645,-82.1044,1.64,28.17,11111222 
SCCF RECON,ioos:station:SCCF:56:1,2019-08-03T05:00:00Z,26.4645,-82.1044,1.64,28.44,11111222 
SCCF RECON,ioos:station:SCCF:56:1,2019-08-03T06:00:00Z,26.4645,-82.1044,1.64,28.47,11111222 
SCCF RECON,ioos:station:SCCF:56:1,2019-08-03T07:00:00Z,26.4645,-82.1044,1.64,28.46,11111222 
SCCF RECON,ioos:station:SCCF:56:1,2019-08-03T08:00:00Z,26.4645,-82.1044,1.64,28.79,11111222 
SCCF RECON,ioos:station:SCCF:56:1,2019-08-03T09:00:00Z,26.4645,-82.1044,1.64,28.92,11111222 
SCCF RECON,ioos:station:SCCF:56:1,2019-08-03T10:00:00Z,26.4645,-82.1044,1.64,28.3,11111222 
SCCF RECON,ioos:station:SCCF:56:1,2019-08-03T11:00:00Z,26.4645,-82.1044,1.64,28.22,11111222 
SCCF RECON,ioos:station:SCCF:56:1,2019-08-03T12:00:00Z,26.4645,-82.1044,1.64,28.08,11111222 
SCCF RECON,ioos:station:SCCF:56:1,2019-08-03T13:00:00Z,26.4645,-82.1044,1.64,27.97,11111222 
SCCF RECON,ioos:station:SCCF:56:1,2019-08-03T14:00:00Z,26.4645,-82.1044,1.64,27.92,11111222 
SCCF RECON,ioos:station:SCCF:56:1,2019-08-03T15:00:00Z,26.4645,-82.1044,1.64,28.45,11111222 
SCCF RECON,ioos:station:SCCF:56:1,2019-08-03T16:00:00Z,26.4645,-82.1044,1.64,29.14,11111222 
SCCF RECON,ioos:station:SCCF:56:1,2019-08-03T17:00:00Z,26.4645,-82.1044,1.64,29.28,11111222 
SCCF RECON,ioos:station:SCCF:56:1,2019-08-03T18:00:00Z,26.4645,-82.1044,1.64,29.46,11111222 
SCCF RECON,ioos:station:SCCF:56:1,2019-08-03T19:00:00Z,26.4645,-82.1044,1.64,29.74,11111222 
SCCF RECON,ioos:station:SCCF:56:1,2019-08-03T20:00:00Z,26.4645,-82.1044,1.64,29.87,11111222 
SCCF RECON,ioos:station:SCCF:56:1,2019-08-03T21:00:00Z,26.4645,-82.1044,1.64,30.47,11111222 
SCCF RECON,ioos:station:SCCF:56:1,2019-08-03T22:00:00Z,26.4645,-82.1044,1.64,30.44,11111222 
SCCF RECON,ioos:station:SCCF:56:1,2019-08-03T23:00:00Z,26.4645,-82.1044,1.64,30.43,11111222 
SCCF RECON,ioos:station:SCCF:56:1,2019-08-04T04:00:00Z,26.4645,-82.1044,1.64,30.11,11111222 
SCCF RECON,ioos:station:SCCF:56:1,2019-08-04T05:00:00Z,26.4645,-82.1044,1.64,29.88,11111222 
SCCF RECON,ioos:station:SCCF:56:1,2019-08-04T06:00:00Z,26.4645,-82.1044,1.64,29.76,11111222 
SCCF RECON,ioos:station:SCCF:56:1,2019-08-04T07:00:00Z,26.4645,-82.1044,1.64,29.71,11111222 
SCCF RECON,ioos:station:SCCF:56:1,2019-08-04T08:00:00Z,26.4645,-82.1044,1.64,29.66,11111222 
SCCF RECON,ioos:station:SCCF:56:1,2019-08-04T09:00:00Z,26.4645,-82.1044,1.64,29.62,11111222 
SCCF RECON,ioos:station:SCCF:56:1,2019-08-04T10:00:00Z,26.4645,-82.1044,1.64,29.54,11111222 
SCCF RECON,ioos:station:SCCF:56:1,2019-08-04T11:00:00Z,26.4645,-82.1044,1.64,29.34,11111222 
SCCF RECON,ioos:station:SCCF:56:1,2019-08-04T12:00:00Z,26.4645,-82.1044,1.64,29.32,11111222 
SCCF RECON,ioos:station:SCCF:56:1,2019-08-04T13:00:00Z,26.4645,-82.1044,1.64,29.28,11111222 
SCCF RECON,ioos:station:SCCF:56:1,2019-08-04T14:00:00Z,26.4645,-82.1044,1.64,29.22,11111222 
SCCF RECON,ioos:station:SCCF:56:1,2019-08-04T15:00:00Z,26.4645,-82.1044,1.64,29.25,11111222 
SCCF RECON,ioos:station:SCCF:56:1,2019-08-04T16:00:00Z,26.4645,-82.1044,1.64,29.78,11111222 
SCCF RECON,ioos:station:SCCF:56:1,2019-08-04T17:00:00Z,26.4645,-82.1044,1.64,29.86,11111222 
SCCF RECON,ioos:station:SCCF:56:1,2019-08-04T18:00:00Z,26.4645,-82.1044,1.64,29.89,11111222 
SCCF RECON,ioos:station:SCCF:56:1,2019-08-04T19:00:00Z,26.4645,-82.1044,1.64,30.25,11111222 
SCCF RECON,ioos:station:SCCF:56:1,2019-08-04T20:00:00Z,26.4645,-82.1044,1.64,30.43,11111222 
SCCF RECON,ioos:station:SCCF:56:1,2019-08-04T21:00:00Z,26.4645,-82.1044,1.64,30.67,11111222 
SCCF RECON,ioos:station:SCCF:56:1,2019-08-04T22:00:00Z,26.4645,-82.1044,1.64,30.85,11111222 
SCCF RECON,ioos:station:SCCF:56:1,2019-08-04T23:00:00Z,26.4645,-82.1044,1.64,30.65,11111222 
SCCF RECON,ioos:station:SCCF:56:1,2019-08-05T04:00:00Z,26.4645,-82.1044,1.64,30.28,11111222 
SCCF RECON,ioos:station:SCCF:56:1,2019-08-05T05:00:00Z,26.4645,-82.1044,1.64,30.17,11111222 
SCCF RECON,ioos:station:SCCF:56:1,2019-08-05T06:00:00Z,26.4645,-82.1044,1.64,29.98,11111222 
SCCF RECON,ioos:station:SCCF:56:1,2019-08-05T07:00:00Z,26.4645,-82.1044,1.64,29.87,11111222 
SCCF RECON,ioos:station:SCCF:56:1,2019-08-05T08:00:00Z,26.4645,-82.1044,1.64,29.77,11111222 
SCCF RECON,ioos:station:SCCF:56:1,2019-08-05T09:00:00Z,26.4645,-82.1044,1.64,29.72,11111222 
SCCF RECON,ioos:station:SCCF:56:1,2019-08-05T10:00:00Z,26.4645,-82.1044,1.64,29.7,11111222 
SCCF RECON,ioos:station:SCCF:56:1,2019-08-05T11:00:00Z,26.4645,-82.1044,1.64,29.18,11111222 
SCCF RECON,ioos:station:SCCF:56:1,2019-08-05T12:00:00Z,26.4645,-82.1044,1.64,29.49,11111222 
SCCF RECON,ioos:station:SCCF:56:1,2019-08-05T13:00:00Z,26.4645,-82.1044,1.64,29.42,11111222 
SCCF RECON,ioos:station:SCCF:56:1,2019-08-05T14:00:00Z,26.4645,-82.1044,1.64,29.41,11111222 
SCCF RECON,ioos:station:SCCF:56:1,2019-08-05T15:00:00Z,26.4645,-82.1044,1.64,29.37,11111222 
SCCF RECON,ioos:station:SCCF:56:1,2019-08-05T16:00:00Z,26.4645,-82.1044,1.64,29.48,11111222 
SCCF RECON,ioos:station:SCCF:56:1,2019-08-05T17:00:00Z,26.4645,-82.1044,1.64,29.88,11111222 
SCCF RECON,ioos:station:SCCF:56:1,2019-08-05T18:00:00Z,26.4645,-82.1044,1.64,30.05,11111222 
SCCF RECON,ioos:station:SCCF:56:1,2019-08-05T19:00:00Z,26.4645,-82.1044,1.64,29.91,11111222 
SCCF RECON,ioos:station:SCCF:56:1,2019-08-05T20:00:00Z,26.4645,-82.1044,1.64,30.02,11111222 
SCCF RECON,ioos:station:SCCF:56:1,2019-08-05T21:00:00Z,26.4645,-82.1044,1.64,30.1,11111222 
SCCF RECON,ioos:station:SCCF:56:1,2019-08-05T22:00:00Z,26.4645,-82.1044,1.64,30.3,11111222 
SCCF RECON,ioos:station:SCCF:56:1,2019-08-05T23:00:00Z,26.4645,-82.1044,1.64,30.24,11111222 
SCCF RECON,ioos:station:SCCF:56:1,2019-08-06T04:00:00Z,26.4645,-82.1044,1.64,30.02,11111222 
SCCF RECON,ioos:station:SCCF:56:1,2019-08-06T05:00:00Z,26.4645,-82.1044,1.64,29.97,11111222 
SCCF RECON,ioos:station:SCCF:56:1,2019-08-06T06:00:00Z,26.4645,-82.1044,1.64,29.77,11111222 
SCCF RECON,ioos:station:SCCF:56:1,2019-08-06T07:00:00Z,26.4645,-82.1044,1.64,29.76,11111222 
SCCF RECON,ioos:station:SCCF:56:1,2019-08-06T08:00:00Z,26.4645,-82.1044,1.64,29.73,11111222 
SCCF RECON,ioos:station:SCCF:56:1,2019-08-06T09:00:00Z,26.4645,-82.1044,1.64,29.67,11111222 
SCCF RECON,ioos:station:SCCF:56:1,2019-08-06T10:00:00Z,26.4645,-82.1044,1.64,29.63,11111222 
SCCF RECON,ioos:station:SCCF:56:1,2019-08-06T11:00:00Z,26.4645,-82.1044,1.64,29.51,11111222 
SCCF RECON,ioos:station:SCCF:56:1,2019-08-06T12:00:00Z,26.4645,-82.1044,1.64,29.39,11111222 
SCCF RECON,ioos:station:SCCF:56:1,2019-08-06T13:00:00Z,26.4645,-82.1044,1.64,29.45,11111222 
SCCF RECON,ioos:station:SCCF:56:1,2019-08-06T14:00:00Z,26.4645,-82.1044,1.64,29.55,11111222 
SCCF RECON,ioos:station:SCCF:56:1,2019-08-06T15:00:00Z,26.4645,-82.1044,1.64,29.7,11111222 
SCCF RECON,ioos:station:SCCF:56:1,2019-08-06T16:00:00Z,26.4645,-82.1044,1.64,30.03,11111222 
SCCF RECON,ioos:station:SCCF:56:1,2019-08-06T17:00:00Z,26.4645,-82.1044,1.64,30.54,11111222 
SCCF RECON,ioos:station:SCCF:56:1,2019-08-06T18:00:00Z,26.4645,-82.1044,1.64,30.53,11111222 
SCCF RECON,ioos:station:SCCF:56:1,2019-08-06T19:00:00Z,26.4645,-82.1044,1.64,31.08,11111222 
SCCF RECON,ioos:station:SCCF:56:1,2019-08-06T20:00:00Z,26.4645,-82.1044,1.64,30.94,11111222 
SCCF RECON,ioos:station:SCCF:56:1,2019-08-06T21:00:00Z,26.4645,-82.1044,1.64,31.06,11111222 
SCCF RECON,ioos:station:SCCF:56:1,2019-08-06T22:00:00Z,26.4645,-82.1044,1.64,31.14,11111222 
SCCF RECON,ioos:station:SCCF:56:1,2019-08-06T23:00:00Z,26.4645,-82.1044,1.64,31.28,11111222 
SCCF RECON,ioos:station:SCCF:56:1,2019-08-07T04:00:00Z,26.4645,-82.1044,1.64,31.1,11111222 
SCCF RECON,ioos:station:SCCF:56:1,2019-08-07T05:00:00Z,26.4645,-82.1044,1.64,31.09,11111222 
SCCF RECON,ioos:station:SCCF:56:1,2019-08-07T06:00:00Z,26.4645,-82.1044,1.64,30.76,11111222 
SCCF RECON,ioos:station:SCCF:56:1,2019-08-07T07:00:00Z,26.4645,-82.1044,1.64,30.28,11111222 
SCCF RECON,ioos:station:SCCF:56:1,2019-08-07T08:00:00Z,26.4645,-82.1044,1.64,30.24,11111222 
SCCF RECON,ioos:station:SCCF:56:1,2019-08-07T09:00:00Z,26.4645,-82.1044,1.64,30.22,11111222 
SCCF RECON,ioos:station:SCCF:56:1,2019-08-07T10:00:00Z,26.4645,-82.1044,1.64,30.16,11111222 
SCCF RECON,ioos:station:SCCF:56:1,2019-08-07T11:00:00Z,26.4645,-82.1044,1.64,30.07,11111222 
SCCF RECON,ioos:station:SCCF:56:1,2019-08-07T12:00:00Z,26.4645,-82.1044,1.64,30.13,11111222 
SCCF RECON,ioos:station:SCCF:56:1,2019-08-07T13:00:00Z,26.4645,-82.1044,1.64,30.09,11111222 
SCCF RECON,ioos:station:SCCF:56:1,2019-08-07T14:00:00Z,26.4645,-82.1044,1.64,30.19,11111222 
SCCF RECON,ioos:station:SCCF:56:1,2019-08-07T15:00:00Z,26.4645,-82.1044,1.64,30.42,11111222 
SCCF RECON,ioos:station:SCCF:56:1,2019-08-07T16:00:00Z,26.4645,-82.1044,1.64,30.75,11111222 
SCCF RECON,ioos:station:SCCF:56:1,2019-08-07T17:00:00Z,26.4645,-82.1044,1.64,31.31,11111222 
SCCF RECON,ioos:station:SCCF:56:1,2019-08-07T18:00:00Z,26.4645,-82.1044,1.64,31.92,11111222 
SCCF RECON,ioos:station:SCCF:56:1,2019-08-07T19:00:00Z,26.4645,-82.1044,1.64,32.47,11111222 
SCCF RECON,ioos:station:SCCF:56:1,2019-08-07T20:00:00Z,26.4645,-82.1044,1.64,32.28,11111222 
SCCF RECON,ioos:station:SCCF:56:1,2019-08-07T21:00:00Z,26.4645,-82.1044,1.64,31.84,11111222 
SCCF RECON,ioos:station:SCCF:56:1,2019-08-07T22:00:00Z,26.4645,-82.1044,1.64,31.69,11111222 
SCCF RECON,ioos:station:SCCF:56:1,2019-08-07T23:00:00Z,26.4645,-82.1044,1.64,31.55,11111222 
SCCF RECON,ioos:station:SCCF:56:1,2019-08-08T04:00:00Z,26.4645,-82.1044,1.64,31.86,11111222 
SCCF RECON,ioos:station:SCCF:56:1,2019-08-08T05:00:00Z,26.4645,-82.1044,1.64,31.91,11111222 
SCCF RECON,ioos:station:SCCF:56:1,2019-08-08T06:00:00Z,26.4645,-82.1044,1.64,31.62,11111222 
SCCF RECON,ioos:station:SCCF:56:1,2019-08-08T07:00:00Z,26.4645,-82.1044,1.64,30.37,11111222 
SCCF RECON,ioos:station:SCCF:56:1,2019-08-08T08:00:00Z,26.4645,-82.1044,1.64,30.36,11111222 
SCCF RECON,ioos:station:SCCF:56:1,2019-08-08T09:00:00Z,26.4645,-82.1044,1.64,30.8,11111222 
SCCF RECON,ioos:station:SCCF:56:1,2019-08-08T10:00:00Z,26.4645,-82.1044,1.64,30.84,11111222 
SCCF RECON,ioos:station:SCCF:56:1,2019-08-08T11:00:00Z,26.4645,-82.1044,1.64,30.87,11111222 
SCCF RECON,ioos:station:SCCF:56:1,2019-08-08T12:00:00Z,26.4645,-82.1044,1.64,30.71,11111222 
SCCF RECON,ioos:station:SCCF:56:1,2019-08-08T13:00:00Z,26.4645,-82.1044,1.64,30.77,11111222 
SCCF RECON,ioos:station:SCCF:56:1,2019-08-08T14:00:00Z,26.4645,-82.1044,1.64,30.79,11111222 
SCCF RECON,ioos:station:SCCF:56:1,2019-08-08T15:00:00Z,26.4645,-82.1044,1.64,31.07,11111222 
SCCF RECON,ioos:station:SCCF:56:1,2019-08-08T16:00:00Z,26.4645,-82.1044,1.64,31.31,11111222 
SCCF RECON,ioos:station:SCCF:56:1,2019-08-08T17:00:00Z,26.4645,-82.1044,1.64,31.82,11111222 
SCCF RECON,ioos:station:SCCF:56:1,2019-08-08T18:00:00Z,26.4645,-82.1044,1.64,32.48,11111222 
SCCF RECON,ioos:station:SCCF:56:1,2019-08-08T19:00:00Z,26.4645,-82.1044,1.64,33.25,11111222 
SCCF RECON,ioos:station:SCCF:56:1,2019-08-08T20:00:00Z,26.4645,-82.1044,1.64,33.61,11111222 
SCCF RECON,ioos:station:SCCF:56:1,2019-08-08T21:00:00Z,26.4645,-82.1044,1.64,33.47,11111222 
SCCF RECON,ioos:station:SCCF:56:1,2019-08-08T22:00:00Z,26.4645,-82.1044,1.64,32.9,11111222 
SCCF RECON,ioos:station:SCCF:56:1,2019-08-08T23:00:00Z,26.4645,-82.1044,1.64,32.46,11111222 
SCCF RECON,ioos:station:SCCF:56:1,2019-08-09T04:00:00Z,26.4645,-82.1044,1.64,31.62,11111222 
SCCF RECON,ioos:station:SCCF:56:1,2019-08-09T05:00:00Z,26.4645,-82.1044,1.64,31.57,11111222 
SCCF RECON,ioos:station:SCCF:56:1,2019-08-09T06:00:00Z,26.4645,-82.1044,1.64,31.82,11111222 
SCCF RECON,ioos:station:SCCF:56:1,2019-08-09T07:00:00Z,26.4645,-82.1044,1.64,31.71,11111222 
SCCF RECON,ioos:station:SCCF:56:1,2019-08-09T08:00:00Z,26.4645,-82.1044,1.64,31.32,11111222 
SCCF RECON,ioos:station:SCCF:56:1,2019-08-09T09:00:00Z,26.4645,-82.1044,1.64,30.86,11111222 
SCCF RECON,ioos:station:SCCF:56:1,2019-08-09T10:00:00Z,26.4645,-82.1044,1.64,30.84,11111222 
SCCF RECON,ioos:station:SCCF:56:1,2019-08-09T11:00:00Z,26.4645,-82.1044,1.64,30.91,11111222 
SCCF RECON,ioos:station:SCCF:56:1,2019-08-09T12:00:00Z,26.4645,-82.1044,1.64,30.96,11111222 
SCCF RECON,ioos:station:SCCF:56:1,2019-08-09T13:00:00Z,26.4645,-82.1044,1.64,31.02,11111222 
SCCF RECON,ioos:station:SCCF:56:1,2019-08-09T14:00:00Z,26.4645,-82.1044,1.64,31.15,11111222 
SCCF RECON,ioos:station:SCCF:56:1,2019-08-09T15:00:00Z,26.4645,-82.1044,1.64,31.15,11111222 
SCCF RECON,ioos:station:SCCF:56:1,2019-08-09T16:00:00Z,26.4645,-82.1044,1.64,31.4,11111222 
SCCF RECON,ioos:station:SCCF:56:1,2019-08-09T17:00:00Z,26.4645,-82.1044,1.64,31.9,11111222 
SCCF RECON,ioos:station:SCCF:56:1,2019-08-09T18:00:00Z,26.4645,-82.1044,1.64,32.12,11111222 
SCCF RECON,ioos:station:SCCF:56:1,2019-08-09T19:00:00Z,26.4645,-82.1044,1.64,32.54,11111222 
SCCF RECON,ioos:station:SCCF:56:1,2019-08-09T20:00:00Z,26.4645,-82.1044,1.64,32.68,11111222 
SCCF RECON,ioos:station:SCCF:56:1,2019-08-09T21:00:00Z,26.4645,-82.1044,1.64,32.77,11111222 
SCCF RECON,ioos:station:SCCF:56:1,2019-08-09T22:00:00Z,26.4645,-82.1044,1.64,32.83,11111222 
SCCF RECON,ioos:station:SCCF:56:1,2019-08-09T23:00:00Z,26.4645,-82.1044,1.64,32.01,11111222 
SCCF RECON,ioos:station:SCCF:56:1,2019-08-10T04:00:00Z,26.4645,-82.1044,1.64,31.37,11111222 
SCCF RECON,ioos:station:SCCF:56:1,2019-08-10T05:00:00Z,26.4645,-82.1044,1.64,31.37,11111222 
SCCF RECON,ioos:station:SCCF:56:1,2019-08-10T06:00:00Z,26.4645,-82.1044,1.64,31.27,11111222 
SCCF RECON,ioos:station:SCCF:56:1,2019-08-10T07:00:00Z,26.4645,-82.1044,1.64,31.19,11111222 
SCCF RECON,ioos:station:SCCF:56:1,2019-08-10T08:00:00Z,26.4645,-82.1044,1.64,31.17,11111222 
SCCF RECON,ioos:station:SCCF:56:1,2019-08-10T09:00:00Z,26.4645,-82.1044,1.64,31.12,11111222 
SCCF RECON,ioos:station:SCCF:56:1,2019-08-10T10:00:00Z,26.4645,-82.1044,1.64,30.67,11111222 
SCCF RECON,ioos:station:SCCF:56:1,2019-08-10T11:00:00Z,26.4645,-82.1044,1.64,30.6,11111222 
SCCF RECON,ioos:station:SCCF:56:1,2019-08-10T12:00:00Z,26.4645,-82.1044,1.64,30.65,11111222 
SCCF RECON,ioos:station:SCCF:56:1,2019-08-10T13:00:00Z,26.4645,-82.1044,1.64,30.85,11111222 
SCCF RECON,ioos:station:SCCF:56:1,2019-08-10T14:00:00Z,26.4645,-82.1044,1.64,30.96,11111222 
SCCF RECON,ioos:station:SCCF:56:1,2019-08-10T15:00:00Z,26.4645,-82.1044,1.64,31.11,11111222 
SCCF RECON,ioos:station:SCCF:56:1,2019-08-10T16:00:00Z,26.4645,-82.1044,1.64,30.94,11111222 
SCCF RECON,ioos:station:SCCF:56:1,2019-08-10T17:00:00Z,26.4645,-82.1044,1.64,30.97,11111222 
SCCF RECON,ioos:station:SCCF:56:1,2019-08-10T18:00:00Z,26.4645,-82.1044,1.64,30.93,11111222 
SCCF RECON,ioos:station:SCCF:56:1,2019-08-10T19:00:00Z,26.4645,-82.1044,1.64,31.01,11111222 
SCCF RECON,ioos:station:SCCF:56:1,2019-08-10T20:00:00Z,26.4645,-82.1044,1.64,31.13,11111222 
SCCF RECON,ioos:station:SCCF:56:1,2019-08-10T21:00:00Z,26.4645,-82.1044,1.64,31.24,11111222 
SCCF RECON,ioos:station:SCCF:56:1,2019-08-10T22:00:00Z,26.4645,-82.1044,1.64,31.37,11111222 
SCCF RECON,ioos:station:SCCF:56:1,2019-08-10T23:00:00Z,26.4645,-82.1044,1.64,31.33,11111222 
SCCF RECON,ioos:station:SCCF:56:1,2019-08-11T04:00:00Z,26.4645,-82.1044,1.64,30.73,11111222 
SCCF RECON,ioos:station:SCCF:56:1,2019-08-11T05:00:00Z,26.4645,-82.1044,1.64,30.78,11111222 
SCCF RECON,ioos:station:SCCF:56:1,2019-08-11T06:00:00Z,26.4645,-82.1044,1.64,30.74,11111222 
SCCF RECON,ioos:station:SCCF:56:1,2019-08-11T07:00:00Z,26.4645,-82.1044,1.64,30.57,11111222 
SCCF RECON,ioos:station:SCCF:56:1,2019-08-11T08:00:00Z,26.4645,-82.1044,1.64,30.64,11111222 
SCCF RECON,ioos:station:SCCF:56:1,2019-08-11T09:00:00Z,26.4645,-82.1044,1.64,30.56,11111222 
SCCF RECON,ioos:station:SCCF:56:1,2019-08-11T10:00:00Z,26.4645,-82.1044,1.64,30.52,11111222 
SCCF RECON,ioos:station:SCCF:56:1,2019-08-11T11:00:00Z,26.4645,-82.1044,1.64,30.07,11111222 
SCCF RECON,ioos:station:SCCF:56:1,2019-08-11T12:00:00Z,26.4645,-82.1044,1.64,30.1,11111222 
SCCF RECON,ioos:station:SCCF:56:1,2019-08-11T13:00:00Z,26.4645,-82.1044,1.64,30.78,11111222 
SCCF RECON,ioos:station:SCCF:56:1,2019-08-11T14:00:00Z,26.4645,-82.1044,1.64,30.87,11111222 
SCCF RECON,ioos:station:SCCF:56:1,2019-08-11T15:00:00Z,26.4645,-82.1044,1.64,30.83,11111222 
SCCF RECON,ioos:station:SCCF:56:1,2019-08-11T16:00:00Z,26.4645,-82.1044,1.64,30.86,11111222 
SCCF RECON,ioos:station:SCCF:56:1,2019-08-11T17:00:00Z,26.4645,-82.1044,1.64,30.81,11111222 
SCCF RECON,ioos:station:SCCF:56:1,2019-08-11T18:00:00Z,26.4645,-82.1044,1.64,30.63,11111222 
SCCF RECON,ioos:station:SCCF:56:1,2019-08-11T19:00:00Z,26.4645,-82.1044,1.64,30.45,11111222 
SCCF RECON,ioos:station:SCCF:56:1,2019-08-11T20:00:00Z,26.4645,-82.1044,1.64,30.33,11111222 
SCCF RECON,ioos:station:SCCF:56:1,2019-08-11T21:00:00Z,26.4645,-82.1044,1.64,30.28,11111222 
SCCF RECON,ioos:station:SCCF:56:1,2019-08-11T22:00:00Z,26.4645,-82.1044,1.64,30.29,11111222 
SCCF RECON,ioos:station:SCCF:56:1,2019-08-11T23:00:00Z,26.4645,-82.1044,1.64,30.27,11111222 
SCCF RECON,ioos:station:SCCF:56:1,2019-08-12T04:00:00Z,26.4645,-82.1044,1.64,30.44,11111222 
SCCF RECON,ioos:station:SCCF:56:1,2019-08-12T05:00:00Z,26.4645,-82.1044,1.64,30.34,11111222 
SCCF RECON,ioos:station:SCCF:56:1,2019-08-12T06:00:00Z,26.4645,-82.1044,1.64,30.41,11111222 
SCCF RECON,ioos:station:SCCF:56:1,2019-08-12T07:00:00Z,26.4645,-82.1044,1.64,30.37,11111222 
SCCF RECON,ioos:station:SCCF:56:1,2019-08-12T08:00:00Z,26.4645,-82.1044,1.64,30.37,11111222 
SCCF RECON,ioos:station:SCCF:56:1,2019-08-12T10:00:00Z,26.4645,-82.1044,1.64,30.13,11111222 
SCCF RECON,ioos:station:SCCF:56:1,2019-08-12T11:00:00Z,26.4645,-82.1044,1.64,30.16,11111222 
SCCF RECON,ioos:station:SCCF:56:1,2019-08-12T12:00:00Z,26.4645,-82.1044,1.64,30.09,11111222 
SCCF RECON,ioos:station:SCCF:56:1,2019-08-12T13:00:00Z,26.4645,-82.1044,1.64,29.93,11111222 
SCCF RECON,ioos:station:SCCF:56:1,2019-08-12T14:00:00Z,26.4645,-82.1044,1.64,30.01,11111222 
SCCF RECON,ioos:station:SCCF:56:1,2019-08-12T15:00:00Z,26.4645,-82.1044,1.64,29.94,11111222 
SCCF RECON,ioos:station:SCCF:56:1,2019-08-12T16:00:00Z,26.4645,-82.1044,1.64,30.03,11111222 
SCCF RECON,ioos:station:SCCF:56:1,2019-08-12T17:00:00Z,26.4645,-82.1044,1.64,30.27,11111222 
SCCF RECON,ioos:station:SCCF:56:1,2019-08-12T18:00:00Z,26.4645,-82.1044,1.64,30.46,11111222 
SCCF RECON,ioos:station:SCCF:56:1,2019-08-12T19:00:00Z,26.4645,-82.1044,1.64,30.77,11111222 
SCCF RECON,ioos:station:SCCF:56:1,2019-08-12T20:00:00Z,26.4645,-82.1044,1.64,30.63,11111222 
SCCF RECON,ioos:station:SCCF:56:1,2019-08-12T21:00:00Z,26.4645,-82.1044,1.64,30.39,11111222 
SCCF RECON,ioos:station:SCCF:56:1,2019-08-12T22:00:00Z,26.4645,-82.1044,1.64,30.21,11111222 
SCCF RECON,ioos:station:SCCF:56:1,2019-08-12T23:00:00Z,26.4645,-82.1044,1.64,30.2,11111222 
SCCF RECON,ioos:station:SCCF:56:1,2019-08-13T04:00:00Z,26.4645,-82.1044,1.64,30.36,11111222 
SCCF RECON,ioos:station:SCCF:56:1,2019-08-13T05:00:00Z,26.4645,-82.1044,1.64,30.2,11111222 
SCCF RECON,ioos:station:SCCF:56:1,2019-08-13T06:00:00Z,26.4645,-82.1044,1.64,30.22,11111222 
SCCF RECON,ioos:station:SCCF:56:1,2019-08-13T07:00:00Z,26.4645,-82.1044,1.64,30.21,11111222 
SCCF RECON,ioos:station:SCCF:56:1,2019-08-13T08:00:00Z,26.4645,-82.1044,1.64,30.14,11111222 
SCCF RECON,ioos:station:SCCF:56:1,2019-08-13T09:00:00Z,26.4645,-82.1044,1.64,29.98,11111222 
SCCF RECON,ioos:station:SCCF:56:1,2019-08-13T10:00:00Z,26.4645,-82.1044,1.64,29.93,11111222 
SCCF RECON,ioos:station:SCCF:56:1,2019-08-13T11:00:00Z,26.4645,-82.1044,1.64,29.88,11111222 
SCCF RECON,ioos:station:SCCF:56:1,2019-08-13T12:00:00Z,26.4645,-82.1044,1.64,29.31,11111222 
SCCF RECON,ioos:station:SCCF:56:1,2019-08-13T13:00:00Z,26.4645,-82.1044,1.64,29.38,11111222 
SCCF RECON,ioos:station:SCCF:56:1,2019-08-13T14:00:00Z,26.4645,-82.1044,1.64,30.09,11111222 
SCCF RECON,ioos:station:SCCF:56:1,2019-08-13T15:00:00Z,26.4645,-82.1044,1.64,30.44,11111222 
SCCF RECON,ioos:station:SCCF:56:1,2019-08-13T16:00:00Z,26.4645,-82.1044,1.64,30.75,11111222 
SCCF RECON,ioos:station:SCCF:56:1,2019-08-13T17:00:00Z,26.4645,-82.1044,1.64,30.71,11111222 
SCCF RECON,ioos:station:SCCF:56:1,2019-08-13T18:00:00Z,26.4645,-82.1044,1.64,31.01,11111222 
SCCF RECON,ioos:station:SCCF:56:1,2019-08-13T19:00:00Z,26.4645,-82.1044,1.64,31.43,11111222 
SCCF RECON,ioos:station:SCCF:56:1,2019-08-13T20:00:00Z,26.4645,-82.1044,1.64,31.59,11111222 
SCCF RECON,ioos:station:SCCF:56:1,2019-08-13T21:00:00Z,26.4645,-82.1044,1.64,31.7,11111222 